Precipitable_Water
0.60 0.59 0.63 0.68 0.78 0.87 0.89 0.90 0.90 0.95 0.98 1.00 0.98 0.94 0.88 0.90 0.92 0.92 0.88 0.81 0.75 0.68 0.62 0.60 0.62 0.64 0.63 0.63 0.60 0.53 0.46 0.41 0.40 0.33 0.34 0.31 0.39 0.36 0.39 0.41 0.39 0.38 0.41
0.56 0.57 0.63 0.67 0.73 0.83 0.90 0.93 0.97 0.97 0.98 0.95 0.90 0.87 0.85 0.86 0.84 0.77 0.70 0.64 0.61 0.61 0.61 0.60 0.60 0.59 0.55 0.53 0.47 0.41 0.36 0.34 0.34 0.32 0.29 0.25 0.28 0.38 0.29 0.35 0.33 0.35 0.39
0.56 0.55 0.59 0.63 0.68 0.74 0.77 0.83 0.87 0.87 0.88 0.84 0.80 0.77 0.77 0.76 0.70 0.66 0.63 0.64 0.62 0.60 0.58 0.57 0.55 0.52 0.45 0.39 0.35 0.34 0.31 0.29 0.30 0.34 0.30 0.27 0.25 0.27 0.33 0.32 0.34 0.34 0.26
0.60 0.55 0.59 0.61 0.64 0.69 0.73 0.74 0.74 0.74 0.74 0.75 0.74 0.71 0.66 0.60 0.63 0.62 0.63 0.62 0.61 0.59 0.55 0.50 0.44 0.39 0.36 0.34 0.32 0.31 0.30 0.31 0.29 0.33 0.33 0.30 0.29 0.25 0.25 0.32 0.27 0.26 0.22
0.63 0.60 0.60 0.63 0.67 0.71 0.71 0.71 0.71 0.70 0.71 0.73 0.71 0.66 0.62 0.62 0.63 0.62 0.60 0.59 0.59 0.55 0.48 0.41 0.37 0.36 0.34 0.32 0.31 0.31 0.31 0.32 0.31 0.32 0.31 0.28 0.28 0.25 0.24 0.20 0.21 0.23 0.22
0.62 0.63 0.63 0.66 0.68 0.71 0.69 0.68 0.67 0.67 0.69 0.69 0.68 0.65 0.63 0.62 0.60 0.58 0.57 0.56 0.52 0.48 0.43 0.41 0.39 0.36 0.33 0.32 0.32 0.32 0.31 0.30 0.30 0.30 0.28 0.25 0.24 0.21 0.21 0.20 0.19 0.18 0.21
0.62 0.61 0.59 0.62 0.66 0.67 0.67 0.68 0.67 0.65 0.67 0.66 0.65 0.64 0.63 0.61 0.58 0.57 0.55 0.52 0.49 0.46 0.42 0.40 0.34 0.32 0.32 0.32 0.31 0.30 0.28 0.29 0.26 0.26 0.23 0.24 0.22 0.22 0.23 0.20 0.19 0.18 0.20
0.59 0.59 0.59 0.63 0.65 0.65 0.65 0.66 0.65 0.64 0.64 0.63 0.63 0.64 0.61 0.59 0.58 0.55 0.53 0.50 0.49 0.45 0.40 0.34 0.32 0.31 0.31 0.30 0.29 0.28 0.26 0.24 0.24 0.23 0.22 0.21 0.21 0.22 0.22 0.20 0.20 0.16 0.19
0.56 0.58 0.61 0.63 0.65 0.64 0.66 0.66 0.64 0.63 0.62 0.62 0.62 0.60 0.60 0.60 0.56 0.53 0.53 0.51 0.48 0.41 0.35 0.32 0.31 0.30 0.30 0.29 0.27 0.25 0.24 0.24 0.23 0.21 0.20 0.20 0.20 0.21 0.22 0.22 0.22 0.21 0.16
0.56 0.58 0.63 0.66 0.66 0.66 0.67 0.66 0.65 0.63 0.64 0.64 0.61 0.60 0.61 0.57 0.54 0.54 0.52 0.49 0.44 0.37 0.31 0.30 0.30 0.29 0.28 0.26 0.25 0.25 0.24 0.22 0.21 0.19 0.18 0.18 0.20 0.21 0.21 0.22 0.22 0.23 0.21
0.56 0.60 0.65 0.68 0.66 0.66 0.67 0.66 0.66 0.65 0.64 0.61 0.62 0.62 0.58 0.56 0.54 0.53 0.51 0.47 0.39 0.33 0.30 0.30 0.29 0.28 0.26 0.26 0.25 0.24 0.22 0.20 0.18 0.17 0.17 0.18 0.19 0.20 0.21 0.22 0.23 0.22 0.23
0.59 0.63 0.66 0.67 0.65 0.65 0.66 0.66 0.66 0.64 0.63 0.62 0.65 0.61 0.59 0.56 0.54 0.53 0.50 0.43 0.36 0.32 0.30 0.29 0.28 0.27 0.26 0.26 0.24 0.22 0.20 0.18 0.17 0.17 0.17 0.18 0.19 0.19 0.21 0.23 0.22 0.22 0.23
0.61 0.64 0.66 0.66 0.65 0.64 0.65 0.67 0.66 0.64 0.63 0.65 0.64 0.61 0.58 0.56 0.54 0.51 0.46 0.39 0.33 0.30 0.29 0.28 0.27 0.26 0.26 0.24 0.22 0.19 0.18 0.18 0.18 0.18 0.18 0.18 0.19 0.20 0.22 0.22 0.22 0.22 0.24
0.61 0.63 0.66 0.67 0.66 0.66 0.65 0.65 0.65 0.65 0.63 0.66 0.64 0.59 0.56 0.55 0.52 0.48 0.42 0.34 0.30 0.29 0.28 0.27 0.27 0.26 0.24 0.21 0.19 0.18 0.19 0.19 0.19 0.20 0.20 0.21 0.21 0.22 0.22 0.23 0.23 0.25 0.26
0.62 0.63 0.65 0.66 0.66 0.65 0.65 0.66 0.68 0.63 0.65 0.67 0.60 0.56 0.55 0.53 0.49 0.43 0.35 0.31 0.29 0.29 0.27 0.27 0.26 0.23 0.21 0.19 0.19 0.19 0.20 0.20 0.20 0.20 0.21 0.22 0.23 0.24 0.24 0.25 0.25 0.26 0.23
0.62 0.63 0.66 0.66 0.65 0.65 0.67 0.68 0.64 0.62 0.66 0.61 0.55 0.54 0.52 0.50 0.45 0.37 0.31 0.29 0.28 0.27 0.27 0.25 0.22 0.20 0.18 0.18 0.19 0.21 0.20 0.20 0.20 0.20 0.21 0.22 0.23 0.23 0.24 0.25 0.25 0.26 0.27
0.64 0.64 0.67 0.69 0.69 0.71 0.70 0.65 0.61 0.65 0.60 0.55 0.54 0.52 0.49 0.45 0.37 0.31 0.29 0.27 0.25 0.26 0.24 0.21 0.19 0.18 0.17 0.18 0.19 0.20 0.20 0.21 0.21 0.22 0.22 0.21 0.22 0.23 0.23 0.24 0.27 0.30 0.29
0.61 0.63 0.68 0.71 0.73 0.72 0.66 0.62 0.64 0.58 0.54 0.53 0.50 0.49 0.44 0.36 0.31 0.29 0.26 0.25 0.25 0.23 0.21 0.19 0.18 0.17 0.17 0.17 0.18 0.20 0.22 0.22 0.22 0.23 0.23 0.23 0.22 0.24 0.25 0.26 0.27 0.27 0.27
0.64 0.70 0.75 0.75 0.71 0.67 0.64 0.63 0.56 0.52 0.51 0.49 0.47 0.43 0.37 0.31 0.28 0.25 0.24 0.25 0.23 0.21 0.19 0.18 0.17 0.16 0.15 0.17 0.19 0.22 0.22 0.22 0.22 0.23 0.24 0.25 0.24 0.25 0.25 0.26 0.26 0.25 0.23
0.73 0.72 0.71 0.70 0.68 0.65 0.63 0.53 0.50 0.48 0.47 0.45 0.42 0.37 0.32 0.28 0.24 0.25 0.25 0.24 0.22 0.19 0.19 0.17 0.16 0.16 0.15 0.17 0.20 0.23 0.23 0.21 0.22 0.23 0.25 0.25 0.24 0.23 0.27 0.26 0.23 0.21 0.20
0.70 0.71 0.68 0.64 0.62 0.56 0.50 0.46 0.46 0.45 0.43 0.40 0.38 0.33 0.27 0.24 0.26 0.26 0.25 0.22 0.20 0.18 0.17 0.16 0.16 0.16 0.17 0.19 0.20 0.22 0.23 0.22 0.22 0.24 0.22 0.23 0.22 0.27 0.26 0.24 0.22 0.21 0.24
0.63 0.63 0.60 0.54 0.49 0.45 0.45 0.45 0.43 0.41 0.40 0.38 0.32 0.26 0.24 0.26 0.27 0.25 0.23 0.21 0.19 0.17 0.16 0.15 0.16 0.17 0.19 0.20 0.21 0.22 0.23 0.24 0.23 0.22 0.21 0.21 0.27 0.23 0.23 0.22 0.22 0.23 0.22
0.61 0.55 0.47 0.41 0.42 0.44 0.43 0.41 0.40 0.39 0.38 0.30 0.24 0.23 0.26 0.27 0.26 0.24 0.21 0.19 0.18 0.16 0.16 0.16 0.16 0.17 0.19 0.20 0.20 0.21 0.23 0.23 0.22 0.22 0.23 0.26 0.23 0.22 0.20 0.21 0.21 0.22 0.23
0.44 0.40 0.39 0.39 0.40 0.41 0.41 0.38 0.38 0.36 0.29 0.23 0.23 0.25 0.25 0.26 0.26 0.24 0.21 0.19 0.17 0.16 0.16 0.17 0.17 0.18 0.18 0.19 0.20 0.22 0.23 0.22 0.22 0.25 0.26 0.22 0.20 0.20 0.20 0.19 0.21 0.25 0.28
0.40 0.40 0.38 0.37 0.38 0.39 0.38 0.38 0.35 0.28 0.23 0.23 0.24 0.25 0.26 0.26 0.25 0.23 0.20 0.19 0.19 0.19 0.18 0.18 0.18 0.18 0.17 0.18 0.21 0.21 0.20 0.22 0.24 0.23 0.21 0.18 0.19 0.18 0.18 0.21 0.26 0.28 0.29
0.40 0.38 0.37 0.36 0.36 0.37 0.36 0.34 0.27 0.23 0.23 0.23 0.24 0.25 0.26 0.26 0.24 0.21 0.19 0.20 0.19 0.19 0.19 0.20 0.20 0.19 0.20 0.20 0.21 0.21 0.22 0.23 0.22 0.20 0.18 0.18 0.18 0.18 0.22 0.26 0.27 0.28 0.29
Wind_Speed
14 13 13 13 13 12 11 10 10 10 10 11 11 11 11 11 11 12 12 14 16 18 20 21 23 24 25 26 28 30 31 32 34 35 36 36 33 35 35 37 39 41 42
15 14 13 13 12 11 10 9 8 8 8 9 10 10 9 9 10 12 13 15 17 19 21 23 25 26 27 29 30 31 32 32 34 35 36 35 36 33 41 41 42 42 41
16 15 14 13 12 11 10 9 8 8 8 9 8 8 9 10 12 14 16 18 19 21 23 25 27 28 29 30 31 32 33 34 34 35 36 37 38 45 40 44 42 44 48
17 16 15 14 13 12 10 9 8 8 8 8 8 9 10 12 14 15 17 19 21 23 25 27 28 28 29 30 32 33 34 35 36 37 37 40 44 44 48 43 49 47 50
19 17 16 15 14 13 11 10 8 8 8 8 9 10 11 13 15 17 19 21 23 25 27 27 28 29 31 32 33 34 35 37 39 40 42 43 44 46 48 52 50 53 53
18 17 17 16 15 14 12 11 9 8 8 9 10 11 13 15 17 19 21 23 24 25 27 29 30 31 32 34 35 36 39 40 41 42 44 45 46 48 49 52 55 57 57
19 18 18 18 17 15 13 12 11 10 10 10 11 13 15 17 19 21 22 23 25 27 29 31 32 33 34 36 37 39 41 42 44 45 46 47 48 50 51 54 57 59 60
19 19 19 18 17 16 15 13 12 11 11 12 14 16 17 19 21 22 23 25 27 29 31 33 34 35 37 38 40 41 43 44 45 47 47 49 50 52 54 56 58 63 63
19 19 18 18 17 16 15 14 13 12 13 14 16 17 19 21 21 23 25 27 29 32 34 35 36 37 39 41 42 43 45 46 47 48 49 51 53 54 56 57 59 61 65
18 18 18 17 17 16 15 15 14 14 15 16 18 19 20 21 23 25 27 30 32 34 36 36 38 40 41 42 44 46 47 48 49 50 53 54 56 57 59 59 60 61 63
18 18 17 17 17 16 16 15 15 16 17 18 19 20 22 23 25 27 30 32 34 36 37 39 40 42 43 44 46 48 49 50 50 53 56 57 59 59 60 61 61 62 62
18 18 17 17 17 17 17 17 17 17 18 19 20 22 23 25 27 30 32 34 36 38 39 41 42 43 45 46 48 49 50 51 54 57 59 60 60 61 61 61 62 62 62
16 17 17 17 18 18 18 18 18 18 20 21 22 23 25 27 30 32 34 36 38 40 41 42 43 45 47 48 49 51 51 54 57 59 60 61 62 62 61 61 61 62 61
16 17 17 18 18 18 18 19 19 20 21 22 23 24 27 29 32 34 36 38 40 41 42 43 45 46 48 49 51 52 55 57 59 60 61 61 61 60 61 61 60 58 58
16 17 18 19 19 19 19 19 20 21 22 23 24 26 28 31 33 36 38 39 40 42 43 45 46 47 49 51 53 56 57 59 60 61 61 60 60 60 59 57 57 57 57
17 17 18 19 19 19 19 20 21 22 22 23 25 27 29 32 35 37 39 40 41 42 44 46 47 49 51 54 56 58 59 59 61 61 60 59 58 56 57 57 58 56 54
17 17 18 18 18 19 19 20 21 21 22 24 26 28 31 34 36 38 39 40 42 43 45 47 49 51 53 56 58 59 59 60 60 59 59 57 55 56 56 56 56 54 52
16 17 17 17 18 18 19 19 20 21 23 24 27 30 33 35 37 38 39 41 43 45 46 48 51 53 56 58 59 60 59 60 58 58 57 56 56 56 55 55 53 51 49
14 15 15 16 16 17 17 18 20 21 23 25 28 31 34 36 37 38 40 42 44 46 48 50 53 55 57 58 60 60 59 59 58 56 55 55 56 55 55 53 51 49 47
12 12 13 14 15 17 18 18 20 22 24 27 30 33 34 35 36 38 41 43 45 47 50 52 54 56 58 59 60 59 59 58 57 55 55 55 55 55 52 49 48 44 42
11 12 13 14 16 17 17 19 20 23 25 28 31 33 33 35 37 40 42 44 46 49 52 54 56 57 58 59 60 60 57 56 56 55 55 54 53 50 48 45 40 39 39
12 12 12 13 14 16 17 19 22 24 27 29 31 31 33 36 38 41 43 46 48 51 53 55 57 57 59 59 59 57 56 55 55 54 53 51 49 46 41 37 37 34 32
11 12 12 13 15 17 19 21 23 26 27 28 29 32 34 37 39 42 45 48 50 52 54 55 57 59 59 59 57 56 55 55 53 51 48 46 42 38 35 33 31 29 29
11 12 13 14 16 18 21 22 24 26 26 28 30 33 35 38 41 44 46 49 52 54 55 56 58 59 59 57 56 54 54 51 49 46 41 38 35 33 30 27 26 28 29
12 13 15 16 18 20 21 23 24 24 27 29 31 34 37 40 43 46 48 51 53 54 56 57 59 59 56 55 55 52 50 47 44 40 35 33 30 27 25 25 27 27 24
14 15 16 17 19 20 21 22 23 25 27 30 33 36 40 43 45 48 50 51 53 55 56 57 57 55 54 53 51 48 46 42 38 34 31 28 26 24 24 26 26 23 22
Wind_Direction
240 242 238 233 232 234 235 240 244 249 254 259 265 272 279 281 287 292 297 300 303 304 305 305 306 306 306 306 306 306 306 306 306 304 303 302 301 299 299 300 300 298 297
235 235 230 227 228 228 232 238 244 250 255 262 270 268 272 281 288 295 301 304 306 307 307 307 307 307 307 307 307 308 307 306 308 306 305 303 302 300 302 300 301 299 298
228 228 226 224 225 226 229 234 242 250 257 262 262 264 276 287 292 297 302 305 307 309 310 309 309 308 308 308 308 309 309 307 308 309 307 305 302 303 300 301 299 300 299
221 224 223 221 221 223 225 232 240 248 254 257 263 272 283 290 295 299 302 305 308 310 311 311 311 310 310 310 310 310 309 309 308 308 306 305 304 304 303 301 302 300 300
219 220 221 218 218 220 225 232 239 248 254 261 271 281 290 296 299 303 305 306 308 310 312 312 312 312 311 310 310 310 309 309 308 307 306 305 304 303 302 302 303 302 302
216 218 217 216 217 219 225 231 237 246 257 269 280 288 295 300 303 305 307 308 310 311 313 313 313 312 311 311 310 309 309 308 308 307 307 306 305 305 303 302 302 302 303
215 216 216 216 218 222 227 231 236 248 261 274 284 292 298 302 305 307 309 310 311 312 313 313 313 312 311 311 311 310 310 309 308 307 307 306 305 305 303 303 302 302 303
215 215 216 216 218 223 227 232 240 252 266 277 287 294 299 303 306 308 309 310 311 312 313 313 312 312 312 311 311 310 310 309 308 308 307 306 306 305 304 304 304 303 302
211 212 213 215 219 224 228 234 244 257 269 280 288 295 300 304 306 307 309 311 312 312 313 313 313 312 312 312 311 311 310 310 309 308 308 307 307 306 306 305 304 304 303
208 210 212 216 221 225 230 239 250 262 272 282 290 296 300 303 305 307 310 312 312 313 313 313 313 313 312 312 312 311 311 310 310 309 309 308 308 307 306 306 305 304 302
211 211 215 219 223 228 236 246 256 266 275 284 291 296 300 302 305 308 310 312 313 313 313 313 313 313 313 313 312 312 312 311 311 311 310 309 309 308 307 306 305 304 303
213 215 219 222 228 236 244 252 260 269 278 285 291 296 300 303 306 309 311 312 313 313 314 314 313 313 314 313 313 313 313 312 312 312 311 310 310 309 308 307 306 305 305
215 220 223 229 235 241 248 255 263 273 281 287 292 296 300 304 307 309 311 313 313 314 314 314 314 314 315 314 314 314 313 313 313 313 312 311 310 309 308 308 307 306 305
220 225 230 236 240 245 252 260 268 276 283 287 293 297 301 305 308 310 312 313 314 314 315 315 315 315 315 315 315 315 314 314 314 313 312 312 311 309 309 308 308 307 307
230 234 237 243 246 250 257 264 271 279 283 288 294 298 302 306 309 311 313 314 314 315 315 316 316 316 317 316 316 315 315 315 315 314 313 312 311 310 309 309 309 309 308
237 241 244 246 248 253 261 268 274 280 284 289 295 300 304 307 310 312 313 314 315 316 317 317 317 318 317 317 316 316 316 316 315 314 314 313 312 311 311 310 309 309 309
244 244 246 248 251 258 264 271 276 281 286 292 297 302 306 309 311 313 314 315 316 317 318 318 318 318 318 318 317 317 316 316 316 315 315 314 313 313 312 311 310 309 309
246 247 249 252 256 263 268 273 277 283 289 294 299 304 308 310 312 314 315 316 317 318 319 319 319 319 319 319 318 318 317 317 316 315 315 314 314 314 313 312 311 310 310
248 250 250 254 261 267 269 276 282 287 291 297 302 306 310 311 313 315 316 317 318 319 319 320 320 320 320 320 319 319 318 317 316 316 315 315 315 314 314 313 312 312 312
248 249 253 258 265 269 274 279 285 290 295 301 305 308 311 312 314 316 317 318 319 319 320 321 321 321 321 321 321 320 319 318 317 317 316 316 315 315 314 314 313 313 315
248 254 261 266 270 273 277 283 289 294 300 304 307 310 312 314 315 317 318 319 320 320 321 321 322 322 322 322 322 321 320 319 318 318 318 317 317 316 316 315 316 316 317
255 260 267 272 275 278 283 289 294 299 303 306 308 311 313 315 317 318 319 320 321 321 322 322 323 323 323 323 322 321 320 320 319 319 319 319 319 319 319 320 319 320 322
260 266 271 276 281 285 289 294 298 302 305 307 310 312 315 317 318 320 320 321 322 322 322 322 323 323 324 323 323 321 321 321 320 320 320 321 322 323 323 324 325 327 327
267 271 277 283 287 291 296 298 301 303 306 309 312 315 316 318 320 321 322 322 323 323 323 323 323 323 323 323 323 323 322 322 323 323 323 325 326 327 328 330 331 331 331
274 278 283 287 290 293 297 300 303 305 309 312 314 316 318 319 320 322 323 323 323 323 323 323 323 324 324 324 324 325 326 326 326 326 327 329 331 332 334 335 335 336 340
280 285 287 291 293 296 299 301 305 309 311 314 315 317 319 320 321 322 323 324 324 324 324 324 324 324 324 325 326 327 327 328 329 330 331 333 335 337 338 337 340 344 345